KD8DNS Weather Reports


time (UTC)temp
C
wind
direction
speed
KPH
gust
KPH
rain 1hr
cm
rain 24hr
cm
rain mn
cm
humidity
%
barometer
mb
20260507130152 -17 129 3.2 8.0 0.00 0.00 0.00 1017.8
20260507125651 -17 26 3.2 8.0 0.00 0.00 0.00 1017.8
20260507125148 -17 63 3.2 4.8 0.00 0.00 0.00 1017.7
20260507124644 -17 42 1.6 1.6 0.00 0.00 0.00 1017.7
20260507124142 -17 357 3.2 9.7 0.00 0.00 0.00 1017.7
20260507123640 -17 316 3.2 4.8 0.00 0.00 0.00 1017.8
20260507123137 -17 52 4.8 8.0 0.00 0.00 0.00 1017.8
20260507122632 -17 15 1.6 4.8 0.00 0.00 0.00 1017.8
20260507122127 -17 35 1.6 4.8 0.00 0.00 0.00 1017.7
20260507121623 -17 25 0.0 3.2 0.00 0.00 0.00 1017.6
20260507121114 -17 43 0.0 9.7 0.00 0.00 0.00 1017.7
20260507120610 -17 15 1.6 3.2 0.00 0.00 0.00 1017.8
20260507120107 -17 8 0.0 3.2 0.00 0.00 0.00 1017.8
20260507115604 -17 31 3.2 4.8 0.00 0.00 0.00 1017.7
20260507115100 -17 357 1.6 3.2 0.00 0.00 0.00 1017.7
20260507114555 -17 63 1.6 8.0 0.00 0.00 0.00 1017.7
20260507114053 -17 7 0.0 8.0 0.00 0.00 0.00 1017.5
20260507113550 -17 9 0.0 3.2 0.00 0.00 0.00 1017.4
20260507113047 -17 21 0.0 0.0 0.00 0.00 0.00 1017.6
20260507112545 -17 0 0.0 0.0 0.00 0.00 0.00 1017.5
20260507112041 -17 8 0.0 0.0 0.00 0.00 0.00 1017.4
20260507111539 -17 7 0.0 0.0 0.00 0.00 0.00 1017.1
20260507111035 -17 8 0.0 0.0 0.00 0.00 0.00 1017.4
20260507110532 -17 8 0.0 0.0 0.00 0.00 0.00 1017.3
20260507110028 -17 8 0.0 0.0 0.00 0.00 0.00 1017.0
20260507105525 -17 8 0.0 0.0 0.00 0.00 0.00 1017.3
20260507105021 -17 8 0.0 0.0 0.00 0.00 0.00 1017.0
20260507104519 -17 8 0.0 0.0 0.00 0.00 0.00 1017.1
20260507104016 -17 7 0.0 0.0 0.00 0.00 0.00 1017.0
20260507103511 -17 7 0.0 0.0 0.00 0.00 0.00 1017.0
20260507103008 -17 7 0.0 0.0 0.00 0.00 0.00 1016.9
20260507102505 -17 7 0.0 0.0 0.00 0.00 0.00 1016.9
20260507102001 -17 8 0.0 0.0 0.00 0.00 0.00 1016.9
20260507101456 -17 8 0.0 0.0 0.00 0.00 0.00 1017.0
20260507100953 -17 7 0.0 0.0 0.00 0.00 0.00 1017.1
20260507100450 -17 8 0.0 0.0 0.00 0.00 0.00 1017.1
20260507095948 -17 8 0.0 0.0 0.00 0.00 0.00 1017.1
20260507095446 -17 6 0.0 0.0 0.00 0.00 0.00 1016.9
20260507094942 -17 6 0.0 0.0 0.00 0.00 0.00 1016.9
20260507094438 -17 8 0.0 0.0 0.00 0.00 0.00 1016.8
20260507093935 -17 7 0.0 0.0 0.00 0.00 0.00 1016.9
20260507093433 -17 8 0.0 0.0 0.00 0.00 0.00 1016.8
20260507092931 -17 8 0.0 0.0 0.00 0.00 0.00 1016.8
20260507092427 -17 8 0.0 0.0 0.00 0.00 0.00 1016.7
20260507091924 -17 7 0.0 0.0 0.00 0.00 0.00 1016.7
20260507091421 -17 9 0.0 0.0 0.00 0.00 0.00 1016.9
20260507090916 -17 7 0.0 0.0 0.00 0.00 0.00 1016.6
20260507090412 -17 7 0.0 0.0 0.00 0.00 0.00 1016.4
20260507085909 -17 7 0.0 0.0 0.00 0.00 0.00 1016.9
20260507085406 -17 7 0.0 0.0 0.00 0.00 0.00 1016.7
20260507084904 -17 8 0.0 0.0 0.00 0.00 0.00 1016.6
20260507084400 -17 8 0.0 0.0 0.00 0.00 0.00 1016.5
20260507083857 -17 8 0.0 0.0 0.00 0.00 0.00 1016.7
20260507083354 -17 8 0.0 0.0 0.00 0.00 0.00 1016.8
20260507082850 -17 8 0.0 0.0 0.00 0.00 0.00 1016.7
20260507082345 -17 8 0.0 0.0 0.00 0.00 0.00 1016.7
20260507081843 -17 6 0.0 0.0 0.00 0.00 0.00 1016.8
20260507081339 -17 8 0.0 0.0 0.00 0.00 0.00 1016.7
20260507080836 -17 13 0.0 0.0 0.00 0.00 0.00 1016.7
20260507080332 -17 6 0.0 0.0 0.00 0.00 0.00 1016.6
20260507075828 -17 6 0.0 0.0 0.00 0.00 0.00 1016.8
20260507075324 -17 6 0.0 0.0 0.00 0.00 0.00 1016.6
20260507074821 -17 6 0.0 0.0 0.00 0.00 0.00 1016.6
20260507074318 -17 11 0.0 0.0 0.00 0.00 0.00 1016.9
20260507073815 -17 13 0.0 0.0 0.00 0.00 0.00 1016.7
20260507073312 -17 16 0.0 0.0 0.00 0.00 0.00 1016.6
20260507072809 -17 6 0.0 0.0 0.00 0.00 0.00 1016.7
20260507072308 -17 6 0.0 0.0 0.00 0.00 0.00 1016.7
20260507071804 -17 6 0.0 0.0 0.00 0.00 0.00 1016.6
20260507071300 -17 7 0.0 0.0 0.00 0.00 0.00 1016.8
20260507070757 -17 7 0.0 0.0 0.00 0.00 0.00 1016.5
20260507070254 -17 6 0.0 0.0 0.00 0.00 0.00 1016.8
20260507065750 -17 6 0.0 0.0 0.00 0.00 0.00 1016.7
20260507065247 -17 7 0.0 0.0 0.00 0.00 0.00 1016.5
20260507064744 -17 7 0.0 0.0 0.00 0.00 0.00 1016.9
20260507064243 -17 6 0.0 0.0 0.00 0.00 0.00 1016.7
20260507063740 -17 6 0.0 0.0 0.00 0.00 0.00 1016.9
20260507063237 -17 6 0.0 0.0 0.00 0.00 0.00 1016.8
20260507062734 -17 7 0.0 0.0 0.00 0.00 0.00 1016.8
20260507062231 -17 6 0.0 0.0 0.00 0.00 0.00 1016.8
20260507061730 -17 9 0.0 0.0 0.00 0.00 0.00 1016.8
20260507061227 -17 9 0.0 0.0 0.00 0.00 0.00 1016.6
20260507060725 -17 9 0.0 0.0 0.00 0.00 0.00 1016.6
20260507060221 -17 9 0.0 0.0 0.00 0.00 0.00 1016.8
20260507055718 -17 9 0.0 0.0 0.00 0.00 0.00 1016.9
20260507055213 -17 9 0.0 0.0 0.00 0.00 0.00 1016.8
20260507054709 -17 9 0.0 0.0 0.00 0.00 0.00 1016.8
20260507054206 -17 9 0.0 0.0 0.00 0.00 0.00 1016.8
20260507053704 -17 9 0.0 0.0 0.00 0.00 0.00 1017.0
20260507053202 -17 9 0.0 0.0 0.00 0.00 0.00 1017.1
20260507052701 -17 9 0.0 0.0 0.00 0.00 0.00 1017.1
20260507052156 -17 9 0.0 0.0 0.00 0.00 0.00 1016.9
20260507051654 -17 9 0.0 0.0 0.00 0.00 0.00 1017.3
20260507051150 -17 9 0.0 0.0 0.00 0.00 0.00 1017.4
20260507050647 -17 9 0.0 0.0 0.00 0.00 0.00 1017.3
20260507050144 -17 9 0.0 0.0 0.00 0.00 0.00 1017.3
20260507045641 -17 9 0.0 0.0 0.00 0.00 0.00 1017.3
20260507045137 -17 9 0.0 0.0 0.00 0.00 0.00 1017.1
20260507044634 -17 9 0.0 0.0 0.00 0.00 0.00 1017.1
20260507044131 -17 9 0.0 0.0 0.00 0.00 0.00 1017.4
20260507043627 -17 13 0.0 0.0 0.00 0.00 0.00 1017.4
20260507043125 -17 13 0.0 0.0 0.00 0.00 0.00 1017.3
20260507042621 -17 13 0.0 0.0 0.00 0.00 0.00 1017.3
20260507042116 -17 13 0.0 0.0 0.00 0.00 0.00 1017.3
20260507041613 -17 13 0.0 0.0 0.00 0.00 0.00 1017.1
20260507041110 -17 15 0.0 0.0 0.00 0.00 0.00 1016.9
20260507040607 -17 10 0.0 0.0 0.00 0.00 0.00 1016.9
20260507040103 -17 9 0.0 0.0 0.00 0.00 0.00 1017.1
20260507035559 -17 9 0.0 0.0 0.00 1.07 1.07 1017.3
20260507035055 -17 9 0.0 0.0 0.00 1.07 1.07 1017.0
20260507034552 -17 9 0.0 0.0 0.00 1.07 1.07 1017.1
20260507034050 -17 10 0.0 0.0 0.00 1.07 1.07 1017.0
20260507033547 -17 10 0.0 0.0 0.00 1.07 1.07 1017.0
20260507033039 -17 12 0.0 0.0 0.00 1.07 1.07 1016.9
20260507032536 -17 12 0.0 0.0 0.00 1.07 1.07 1017.3
20260507032032 -17 12 0.0 0.0 0.00 1.07 1.07 1017.4
20260507031528 -17 10 0.0 0.0 0.00 1.07 1.07 1017.3
20260507031026 -17 10 0.0 0.0 0.00 1.07 1.07 1017.5
20260507030523 -17 10 0.0 0.0 0.00 1.07 1.07 1017.5
20260507030021 -17 11 0.0 0.0 0.00 1.07 1.07 1017.5
20260507025517 -17 11 0.0 0.0 0.00 1.07 1.07 1017.1
20260507025015 -17 14 0.0 0.0 0.00 1.07 1.07 1017.3
20260507024512 -17 14 0.0 0.0 0.00 1.07 1.07 1017.4
20260507024009 -17 14 0.0 0.0 0.00 1.07 1.07 1017.3
20260507023505 -17 14 0.0 0.0 0.00 1.07 1.07 1017.3
20260507023003 -17 14 0.0 0.0 0.00 1.07 1.07 1017.3
20260507022459 -17 14 0.0 0.0 0.00 1.07 1.07 1017.1
20260507021954 -17 14 0.0 0.0 0.00 1.07 1.07 1017.1
20260507021450 -17 14 0.0 0.0 0.00 1.07 1.07 1017.3
20260507020947 -17 14 0.0 0.0 0.00 1.07 1.07 1017.0
20260507020444 -17 14 0.0 0.0 0.00 1.07 1.07 1017.1
20260507015941 -17 15 0.0 0.0 0.00 1.07 1.07 1017.3
20260507015439 -17 11 0.0 0.0 0.00 1.07 1.07 1017.0
20260507014930 -17 19 0.0 0.0 0.00 1.07 1.07 1016.6
20260507014427 -17 19 0.0 1.6 0.00 1.07 1.07 1016.8
20260507013923 -17 21 0.0 0.0 0.00 1.07 1.07 1016.7
20260507013420 -17 22 0.0 0.0 0.00 1.07 1.07 1016.5
20260507012918 -17 12 0.0 0.0 0.00 1.07 1.07 1016.3
20260507012414 -17 28 0.0 1.6 0.00 1.07 1.07 1016.6
20260507011911 -17 27 0.0 0.0 0.00 1.07 1.07 1016.3
20260507011408 -17 24 0.0 0.0 0.00 1.07 1.07 1016.4
20260507010908 -17 19 0.0 0.0 0.00 1.07 1.07 1016.4
20260507010403 -17 25 0.0 1.6 0.00 1.07 1.07 1016.4
20260507005900 -17 17 0.0 0.0 0.00 1.07 1.07 1016.8
20260507005357 -17 26 0.0 1.6 0.00 1.07 1.07 1016.5
20260507004848 -17 32 0.0 1.6 0.00 1.07 1.07 1016.9
20260507004345 -17 22 1.6 3.2 0.00 1.07 1.07 1016.7
20260507003843 -17 49 0.0 4.8 0.00 1.07 1.07 1016.3
20260507003338 -17 23 3.2 4.8 0.00 1.07 1.07 1016.3
20260507002833 -17 9 0.0 4.8 0.00 1.07 1.07 1016.4
20260507002329 -17 55 1.6 8.0 0.00 1.07 1.07 1016.2
20260507001827 -17 21 0.0 4.8 0.00 1.07 1.07 1016.0
20260507001324 -17 17 0.0 3.2 0.00 1.07 1.07 1015.9
20260507000820 -17 68 3.2 8.0 0.00 1.07 1.07 1015.9
20260507000316 -17 23 1.6 4.8 0.00 1.07 1.07 1015.7
20260506235813 -17 69 3.2 4.8 0.00 1.07 1.07 1015.6
20260506235309 -17 58 3.2 4.8 0.00 1.07 1.07 1015.8
20260506234805 -17 24 1.6 8.0 0.00 1.07 1.07 1015.5
20260506234303 -17 67 3.2 3.2 0.00 1.07 1.07 1015.5
20260506233800 -17 19 1.6 3.2 0.00 1.07 1.07 1015.4
20260506233256 -17 55 3.2 8.0 0.00 1.07 1.07 1015.1
20260506232753 -17 21 1.6 9.7 0.00 1.07 1.07 1015.2
20260506232248 -17 42 1.6 3.2 0.00 1.07 1.07 1015.4
20260506231745 -17 56 3.2 3.2 0.00 1.07 1.07 1015.2
20260506231244 -17 4 1.6 4.8 0.00 1.07 1.07 1015.6
20260506230740 -17 29 0.0 11.3 0.00 1.07 1.07 1015.4
20260506230237 -17 14 3.2 8.0 0.00 1.07 1.07 1015.4
20260506225734 -17 19 1.6 3.2 0.00 1.07 1.07 1015.5
20260506225231 -17 16 3.2 4.8 0.00 1.07 1.07 1015.6
20260506224727 -17 110 4.8 4.8 0.00 1.07 1.07 1015.6
20260506224224 -17 21 3.2 9.7 0.00 1.07 1.07 1015.6
20260506223721 -17 88 6.4 9.7 0.00 1.07 1.07 1015.7
20260506223216 -17 339 1.6 3.2 0.00 1.07 1.07 1015.8
20260506222714 -17 338 4.8 9.7 0.00 1.07 1.07 1015.9
20260506222209 -17 43 4.8 9.7 0.00 1.07 1.07 1016.1
20260506221707 -17 18 1.6 8.0 0.00 1.07 1.07 1015.6
20260506221205 -17 30 1.6 3.2 0.00 1.07 1.07 1015.8
20260506220702 -17 85 1.6 3.2 0.00 1.07 1.07 1016.1
20260506220157 -17 353 0.0 9.7 0.00 1.07 1.07 1015.8
20260506215654 -17 344 3.2 11.3 0.00 1.07 1.07 1015.9
20260506215149 -17 80 1.6 11.3 0.00 1.07 1.07 1015.5
20260506214646 -17 348 3.2 4.8 0.00 1.07 1.07 1015.5
20260506214143 -17 45 3.2 9.7 0.00 1.07 1.07 1015.3
20260506213642 -17 16 0.0 4.8 0.00 1.07 1.07 1015.3
20260506213139 -17 8 0.0 3.2 0.00 1.07 1.07 1015.0
20260506212636 -17 72 3.2 4.8 0.00 1.07 1.07 1015.0
20260506212130 -17 80 4.8 9.7 0.00 1.07 1.07 1015.1
20260506211626 -17 21 0.0 4.8 0.00 1.07 1.07 1015.2
20260506211123 -17 108 3.2 3.2 0.00 1.07 1.07 1014.9
20260506210620 -17 314 1.6 9.7 0.00 1.07 1.07 1015.0
20260506210117 -17 10 0.0 1.6 0.00 1.07 1.07 1014.8
20260506205614 -17 49 3.2 9.7 0.00 1.07 1.07 1014.7
20260506205108 -17 7 0.0 3.2 0.00 1.07 1.07 1015.0
20260506204607 -17 18 1.6 11.3 0.00 1.07 1.07 1014.8
20260506204103 -17 21 1.6 4.8 0.00 1.07 1.07 1015.0
20260506203602 -17 118 6.4 8.0 0.00 1.07 1.07 1015.1
20260506203058 -17 41 3.2 4.8 0.00 1.07 1.07 1014.9
20260506202556 -17 341 6.4 8.0 0.00 1.07 1.07 1015.1
20260506202052 -17 25 1.6 4.8 0.00 1.07 1.07 1014.9
20260506201549 -17 31 1.6 3.2 0.00 1.07 1.07 1015.2
20260506201046 -17 4 4.8 4.8 0.00 1.07 1.07 1014.9
20260506200542 -17 45 3.2 8.0 0.00 1.07 1.07 1014.8
20260506200039 -17 24 6.4 9.7 0.00 1.07 1.07 1014.9
20260506195536 -17 27 1.6 3.2 0.00 1.07 1.07 1015.0
20260506195032 -17 71 6.4 9.7 0.00 1.07 1.07 1014.8
20260506194530 -17 53 3.2 8.0 0.00 1.07 1.07 1015.0
20260506194026 -17 222 3.2 3.2 0.00 1.07 1.07 1015.0
20260506193523 -17 1 4.8 11.3 0.00 1.07 1.07 1015.0
20260506193020 -17 15 3.2 9.7 0.00 1.07 1.07 1015.0
20260506192517 -17 10 1.6 8.0 0.00 1.07 1.07 1014.8
20260506192013 -17 9 1.6 4.8 0.00 1.07 1.07 1014.6
20260506191510 -17 351 1.6 9.7 0.00 1.07 1.07 1014.8
20260506191006 -17 43 3.2 4.8 0.00 1.07 1.07 1014.6
20260506190503 -17 31 4.8 9.7 0.00 1.07 1.07 1014.7
20260506190000 -17 340 1.6 4.8 0.00 1.07 1.07 1014.8
20260506185458 -17 71 8.0 14.5 0.00 1.07 1.07 1014.9
20260506184954 -17 349 1.6 3.2 0.00 1.07 1.07 1015.1
20260506184451 -17 342 1.6 9.7 0.00 1.07 1.07 1015.1
20260506183943 -17 31 1.6 9.7 0.00 1.07 1.07 1014.9
20260506183438 -17 65 3.2 4.8 0.00 1.07 1.07 1015.0
20260506182936 -17 49 3.2 4.8 0.00 1.07 1.07 1015.0
20260506182433 -17 28 1.6 8.0 0.00 1.07 1.07 1014.8
20260506181930 -17 351 1.6 3.2 0.00 1.07 1.07 1014.7
20260506181427 -17 42 0.0 4.8 0.00 1.07 1.07 1014.8
20260506180918 -17 325 1.6 8.0 0.00 1.07 1.07 1015.2
20260506180415 -17 260 1.6 8.0 0.00 1.07 1.07 1015.0
20260506175912 -17 353 0.0 8.0 0.00 1.07 1.07 1015.2
20260506175409 -17 20 4.8 11.3 0.00 1.07 1.07 1014.7
20260506174905 -17 355 3.2 9.7 0.00 1.07 1.07 1015.0
20260506174403 -17 2 0.0 4.8 0.00 1.07 1.07 1015.2
20260506173900 -17 46 1.6 8.0 0.00 1.07 1.07 1015.1
20260506173357 -17 69 6.4 8.0 0.00 1.07 1.07 1015.3
20260506172854 -17 55 9.7 14.5 0.00 1.07 1.07 1014.8
20260506172350 -17 84 1.6 8.0 0.00 1.07 1.07 1015.1
20260506171848 -17 97 3.2 11.3 0.00 1.07 1.07 1015.4
20260506171344 -17 35 0.0 4.8 0.00 1.07 1.07 1015.1
20260506170842 -17 93 3.2 12.9 0.00 1.07 1.07 1015.4
20260506170337 -17 32 3.2 4.8 0.00 1.07 1.07 1015.3
20260506165831 -17 203 4.8 8.0 0.00 1.07 1.07 1015.1
20260506165328 -17 56 4.8 8.0 0.00 1.07 1.07 1015.0
20260506164819 -17 4 1.6 8.0 0.00 1.07 1.07 1015.0
20260506164316 -17 24 1.6 12.9 0.00 1.07 1.07 1014.9
20260506163814 -17 2 4.8 4.8 0.00 1.07 1.07 1015.1
20260506163308 -17 67 1.6 4.8 0.00 1.07 1.07 1014.9
20260506162803 -17 114 0.0 9.7 0.00 1.07 1.07 1015.3
20260506162302 -17 163 3.2 3.2 0.00 1.07 1.07 1015.1
20260506161753 -17 357 8.0 9.7 0.00 1.07 1.07 1015.3
20260506161250 -17 191 3.2 8.0 0.00 1.07 1.07 1015.4
20260506160748 -17 98 0.0 4.8 0.00 1.07 1.07 1015.3
20260506160244 -17 75 3.2 11.3 0.00 1.07 1.07 1015.1
20260506155743 -17 19 1.6 8.0 0.00 1.07 1.07 1015.2
20260506155239 -17 42 4.8 11.3 0.00 1.07 1.07 1015.2
20260506153347 -17 74 1.6 4.8 0.00 1.07 1.07 1014.9
20260506152844 -17 10 1.6 4.8 0.00 1.07 1.07 1014.8
20260506152341 -17 99 1.6 4.8 0.00 1.07 1.07 1014.7
20260506151839 -17 64 3.2 8.0 0.00 1.07 1.07 1014.5
20260506151336 -17 45 3.2 8.0 0.00 1.07 1.07 1014.7
20260506150833 -17 10 1.6 9.7 0.00 1.07 1.07 1014.5
20260506150330 -17 116 4.8 8.0 0.00 1.07 1.07 1014.8
20260506145826 -17 125 3.2 8.0 0.00 1.07 1.07 1014.3
20260506145323 -17 60 1.6 8.0 0.00 1.07 1.07 1014.4
20260506144821 -17 57 3.2 3.2 0.00 1.07 1.07 1014.2
20260506144317 -17 197 4.8 9.7 0.00 1.07 1.07 1014.1
20260506143816 -17 38 1.6 3.2 0.00 1.07 1.07 1014.1
20260506143312 -17 94 4.8 9.7 0.00 1.07 1.07 1014.1
20260506142810 -17 141 4.8 4.8 0.00 1.07 1.07 1014.3
20260506142308 -17 133 6.4 9.7 0.00 1.07 1.07 1014.4
20260506141806 -17 34 3.2 4.8 0.00 1.07 1.07 1013.9
20260506141304 -17 351 3.2 8.0 0.00 1.07 1.07 1013.8
20260506140802 -17 58 3.2 9.7 0.00 1.07 1.07 1014.0
20260506140258 -17 33 3.2 4.8 0.00 1.07 1.07 1014.1
20260506135755 -17 80 4.8 8.0 0.00 1.07 1.07 1013.7
20260506135251 -17 20 0.0 9.7 0.00 1.07 1.07 1013.5
20260506134748 -17 100 4.8 8.0 0.00 1.07 1.07 1013.8
20260506134244 -17 357 0.0 11.3 0.00 1.07 1.07 1013.3
20260506133742 -17 27 1.6 3.2 0.00 1.07 1.07 1013.3
20260506133238 -17 21 1.6 3.2 0.00 1.07 1.07 1013.7
20260506132735 -17 47 1.6 4.8 0.00 1.07 1.07 1013.8
20260506132233 -17 73 3.2 3.2 0.00 1.07 1.07 1013.4
20260506131731 -17 99 1.6 4.8 0.00 1.07 1.07 1013.7
20260506131226 -17 28 3.2 9.7 0.00 1.07 1.07 1013.4
20260506130723 -17 34 1.6 8.0 0.00 1.07 1.07 1013.3